Tracking 25709 objects as of 23-May-2022
HD Live streaming from Space Station
objects crossing your sky now

MOZHAYETS 4

Track MOZHAYETS 4 now!
10-day predictions
MOZHAYETS 4 is classified as:


NORAD ID: 27939
Int'l Code: 2003-042A
Perigee: 668.6 km
Apogee: 684.9 km
Inclination: 98.2 °
Period: 98.1 minutes
Semi major axis: 7047 km
RCS: 0.7646 m2 (medium)
Launch date: September 27, 2003
Source: Commonwealth of Independent States (former USSR) (CIS)
Launch site: PLESETSK MISSILE AND SPACE COMPLEX (PKMTR)

Uplink (MHz):
Downlink (MHz): 432.098/435.352
Beacon (MHz):
Mode:
Call sign:
Status: Unknown

aabbcc
Your satellite tracking list
Your tracking list is empty




NASA's NSSDC Master Catalog

Two Line Element Set (TLE):
1 27939U 03042A   22143.09888005  .00001408  00000-0  25810-3 0  9991
2 27939  98.1889 283.8315 0011605 289.5419  70.4524 14.67324784997324
Source of the keplerian elements: Caltech